EDT,Max TemperatureF,Mean TemperatureF,Min TemperatureF,Max Dew PointF,MeanDew PointF,Min DewpointF,Max Humidity, Mean Humidity, Min Humidity, Max Sea Level PressureIn, Mean Sea Level PressureIn, Min Sea Level PressureIn, Max VisibilityMiles, Mean VisibilityMiles, Min VisibilityMiles, Max Wind SpeedMPH, Mean Wind SpeedMPH, Max Gust SpeedMPH,PrecipitationIn, CloudCover, Events, WindDirDegrees
2013-3-1,49,39,30,30,27,25,86,61,39,29.92,29.88,29.85,10,10,10,10,4,,0.00,4,,280
2013-3-2,48,38,28,32,25,19,92,61,38,29.93,29.88,29.81,10,10,10,12,2,17,0.00,6,,320
2013-3-3,46,36,27,21,18,16,74,48,33,29.99,29.92,29.86,10,10,10,15,4,18,0.00,1,,311
2013-3-4,52,36,20,22,16,10,83,49,20,30.12,30.06,29.99,10,10,10,15,3,22,0.00,0,,285
2013-3-5,47,39,31,46,37,24,97,85,49,30.08,29.91,29.56,10,6,0,7,1,,0.26,6,Fog-Rain,109
2013-3-6,50,44,38,49,31,24,97,64,41,30.04,29.75,29.52,10,9,0,24,10,36,0.04,6,Fog-Rain,293
2013-3-7,53,44,34,29,27,24,77,55,37,30.24,30.14,30.04,10,10,10,15,8,22,0.00,1,,306
2013-3-8,56,42,27,26,23,21,86,46,26,30.29,30.22,30.15,10,10,10,18,7,25,0.00,0,,317
2013-3-9,63,45,27,34,28,24,91,58,24,30.34,30.29,30.23,10,10,7,12,2,16,0.00,0,,28
2013-3-10,68,48,28,35,28,20,94,58,16,30.33,30.26,30.20,10,10,5,7,1,,0.00,0,,124
2013-3-11,69,50,31,53,42,28,92,69,45,30.25,30.09,29.95,10,10,10,13,3,22,0.00,4,,152
2013-3-12,71,62,50,61,52,32,96,72,36,29.95,29.83,29.75,10,10,5,15,7,24,0.30,5,Rain,223
2013-3-13,58,44,31,35,26,17,95,50,23,30.14,30.03,29.96,10,10,10,17,5,28,0.00,1,,297
2013-3-14,54,40,26,26,18,14,76,46,22,30.26,30.18,30.11,10,10,10,14,5,21,0.00,0,,294
2013-3-15,63,44,24,35,27,20,89,58,25,30.19,30.07,29.91,10,10,10,17,2,22,0.00,0,,222
2013-3-16,79,60,40,45,41,34,78,47,27,29.90,29.80,29.67,10,10,10,21,6,26,0.00,2,,217
2013-3-17,64,54,45,53,44,38,91,75,52,30.16,29.99,29.85,10,9,4,15,4,21,0.00,5,,44
2013-3-18,45,42,39,42,40,38,96,93,80,30.19,30.08,29.88,10,6,2,10,6,18,0.32,8,Rain,38
2013-3-19,67,54,41,46,33,16,97,59,15,30.01,29.89,29.82,10,8,1,15,4,25,0.01,3,Rain,284
2013-3-20,55,44,32,30,18,8,79,38,19,30.13,29.98,29.79,10,10,10,10,4,,0.00,2,,290
2013-3-21,47,38,29,31,18,9,91,45,23,29.98,29.82,29.74,10,10,10,17,6,25,0.00,2,,310
2013-3-22,53,37,21,28,15,10,79,43,20,30.09,30.02,29.97,10,10,10,13,4,20,0.00,0,,280
2013-3-23,53,44,34,33,27,21,89,52,32,30.06,30.00,29.91,10,10,10,7,1,,0.00,5,,342
2013-3-24,41,36,32,39,36,29,95,91,84,29.93,29.73,29.57,10,8,2,14,3,21,0.54,7,Rain,28
2013-3-25,48,42,37,38,30,20,97,68,34,29.83,29.64,29.57,10,9,2,23,5,32,0.00,7,Rain,265
2013-3-26,49,40,30,27,26,24,82,52,38,30.12,29.95,29.84,10,10,10,13,6,18,0.00,5,,281
2013-3-27,52,40,27,28,23,18,90,53,27,30.23,30.18,30.12,10,10,10,16,7,30,0.00,0,,293
2013-3-28,57,41,25,27,23,20,87,50,24,30.30,30.22,30.16,10,10,10,16,5,23,0.00,0,,300
2013-3-29,61,44,26,34,25,20,90,56,21,30.34,30.26,30.19,10,10,10,10,2,16,0.00,1,,280
2013-3-30,66,52,37,44,37,33,87,61,34,30.24,30.16,30.09,10,10,10,8,1,,0.00,5,,224
2013-3-31,69,56,44,59,51,41,97,81,55,30.11,29.93,29.82,10,9,1,15,3,22,0.25,6,Rain,220